EW5543 Weather Reports


time (UTC)temp
C
wind
direction
speed
KPH
gust
KPH
rain 1hr
cm
rain 24hr
cm
rain mn
cm
humidity
%
barometer
mb
20260502123041 3 246 6.4 17.7 0.00 0.48 0.03 89 1015.4
20260502121539 2 273 9.7 19.3 0.00 0.48 0.03 90 1015.2
20260502114536 2 272 8.0 19.3 0.00 0.48 0.03 93 1015.2
20260502113039 2 261 11.3 17.7 0.00 0.48 0.03 94 1015.1
20260502111530 2 289 4.8 17.7 0.00 0.48 0.03 94 1015.0
20260502110028 2 278 8.0 16.1 0.00 0.48 0.03 95 1014.9
20260502104532 2 279 9.7 16.1 0.00 0.48 0.03 96 1014.5
20260502103023 3 302 4.8 12.9 0.00 0.48 0.03 97 1014.3
20260502101521 3 275 6.4 12.9 0.00 0.48 0.03 97 1014.3
20260502091518 3 249 4.8 9.7 0.00 0.48 0.03 98 1013.5
20260502071507 3 257 3.2 6.4 0.03 0.48 0.03 97 1013.2
20260502070007 2 258 1.6 4.8 0.00 0.46 0.00 97 1013.2
20260502064506 3 231 1.6 6.4 0.00 0.46 0.00 97 1013.3
20260502063007 3 267 0.0 1.6 0.00 0.46 0.00 97 1013.0
20260502061502 3 267 0.0 3.2 0.00 0.46 0.00 97 1012.9
20260502060109 3 267 0.0 0.0 0.00 0.46 0.00 97 1013.1
20260502054612 3 267 0.0 3.2 0.00 0.46 0.00 97 1013.4
20260502053057 3 267 1.6 4.8 0.00 0.46 0.00 96 1013.9
20260502051555 3 67 0.0 3.2 0.00 0.46 0.00 96 1013.6
20260502050054 3 67 0.0 1.6 0.00 0.46 0.00 97 1013.7
20260502044553 3 67 0.0 3.2 0.03 0.46 0.00 96 1013.6
20260502043109 3 67 0.0 3.2 0.03 0.46 0.00 96 1013.6
20260502041613 3 67 0.0 3.2 0.03 0.46 0.00 96 1013.7
20260502040055 3 67 0.0 4.8 0.05 0.46 0.46 96 1013.7
20260502034549 3 42 0.0 3.2 0.03 0.43 0.43 96 1013.7
20260502033047 3 42 0.0 1.6 0.05 0.43 0.43 96 1013.6
20260502031548 3 42 0.0 3.2 0.05 0.43 0.43 96 1013.5
20260502030105 3 42 0.0 1.6 0.08 0.41 0.41 95 1013.4
20260502024559 3 42 0.0 3.2 0.13 0.41 0.41 95 1013.6
20260502023112 3 42 0.0 3.2 0.13 0.38 0.38 95 1013.5
20260502021546 3 42 0.0 4.8 0.15 0.38 0.38 95 1013.5
20260502020045 3 63 0.0 4.8 0.13 0.33 0.33 94 1013.5
20260502014546 3 55 1.6 4.8 0.10 0.28 0.28 94 1013.5
20260502013053 3 55 0.0 4.8 0.08 0.23 0.23 94 1013.5
20260502011601 3 48 0.0 1.6 0.10 0.23 0.23 93 1013.2
20260502010042 3 19 0.0 3.2 0.08 0.20 0.20 93 1013.0
20260502004542 3 312 0.0 4.8 0.08 0.18 0.18 92 1013.0
20260502003041 4 327 1.6 4.8 0.08 0.15 0.15 91 1012.9
20260502001543 4 303 1.6 6.4 0.08 0.13 0.13 91 1012.8
20260502000054 5 292 1.6 4.8 0.08 0.13 0.13 91 1012.7
20260501234539 5 279 0.0 4.8 0.08 0.10 0.10 90 1012.7
20260501233050 5 279 1.6 4.8 0.08 0.08 0.08 90 1012.5
20260501231545 5 279 1.6 4.8 0.05 0.05 0.05 89 1012.5
20260501230110 5 306 1.6 6.4 0.05 0.05 0.05 87 1012.4
20260501224550 6 306 3.2 9.7 0.03 0.03 0.03 85 1012.3
20260501223036 6 305 3.2 9.7 0.00 0.00 0.00 81 1012.4
20260501221536 7 333 4.8 12.9 0.00 0.00 0.00 77 1012.2
20260501220038 7 323 3.2 8.0 0.00 0.00 0.00 73 1012.1
20260501214534 8 309 4.8 12.9 0.00 0.00 0.00 75 1012.1
20260501213033 8 260 3.2 12.9 0.00 0.00 0.00 74 1012.0
20260501211536 8 282 4.8 11.3 0.00 0.00 0.00 73 1012.0
20260501210037 8 273 4.8 12.9 0.00 0.00 0.00 70 1012.1
20260501204533 9 285 6.4 16.1 0.00 0.00 0.00 69 1012.0
20260501203031 9 269 8.0 19.3 0.00 0.00 0.00 66 1011.8
20260501201530 10 257 6.4 16.1 0.00 0.00 0.00 64 1011.8
20260501200030 10 236 6.4 16.1 0.00 0.00 0.00 62 1012.0
20260501194528 10 277 8.0 20.9 0.00 0.00 0.00 61 1011.9
20260501193032 10 265 6.4 14.5 0.00 0.00 0.00 59 1012.2
20260501191526 10 250 6.4 12.9 0.00 0.00 0.00 57 1012.3
20260501190028 10 275 8.0 16.1 0.00 0.00 0.00 55 1012.3
20260501184527 10 260 8.0 16.1 0.00 0.00 0.00 55 1012.4
20260501183024 10 238 6.4 12.9 0.00 0.00 0.00 56 1012.4
20260501181523 10 310 8.0 14.5 0.00 0.00 0.00 57 1012.4
20260501180023 10 308 6.4 16.1 0.00 0.00 0.00 55 1012.5
20260501174522 10 280 3.2 12.9 0.00 0.00 0.00 56 1012.2
20260501173024 10 242 3.2 8.0 0.00 0.00 0.00 57 1012.5
20260501171550 10 305 3.2 11.3 0.00 0.00 0.00 55 1012.6
20260501170019 10 307 3.2 12.9 0.00 0.00 0.00 54 1012.7
20260501164518 10 273 6.4 11.3 0.00 0.00 0.00 53 1013.0
20260501163018 11 246 6.4 14.5 0.00 0.00 0.00 53 1013.1
20260501161516 10 201 1.6 11.3 0.00 0.00 0.00 56 1013.0
20260501160013 10 175 4.8 14.5 0.00 0.00 0.00 56 1013.3
20260501154510 9 259 4.8 11.3 0.00 0.00 0.00 56 1013.4
20260501153009 9 51 3.2 9.7 0.00 0.00 0.00 61 1013.4
20260501151506 8 228 1.6 12.9 0.00 0.00 0.00 60 1013.5
20260501150005 8 56 3.2 12.9 0.00 0.03 0.00 65 1013.7
20260501144504 8 203 3.2 12.9 0.00 0.03 0.00 64 1013.8
20260501143004 8 244 4.8 11.3 0.00 0.03 0.00 69 1013.8